Dewpoint
73 72 73 73 73 72 70 69 58 61 58 54 54 55 52 58 59 57 57 60 57 60 60 61 59 58 58 56 55 61 62 56 59 52 54 64 69 70 70 71 71 71 72 73 74 74 73 74 75 75 75 75 75 75 76 75 76 76 76 76 77 77 77 76 76 76 76 76 76 76 76 76 76 76 75 74 74 75 74 74 74 74 75 74 74 74 75 75 75 75 75 74 74 74 75 75 74
72 72 73 73 73 72 65 69 59 57 56 52 52 54 54 58 58 55 55 57 56 60 61 60 59 60 60 59 61 60 61 64 64 64 67 68 68 69 70 72 71 71 72 73 74 74 73 73 75 75 75 75 75 74 75 75 75 76 77 77 77 77 76 77 76 76 76 76 76 76 76 76 76 76 74 75 75 75 75 74 74 74 74 75 74 74 74 75 75 75 75 75 75 75 75 75 74
71 72 73 74 72 70 67 66 56 53 52 49 48 52 56 55 54 55 56 57 59 61 61 60 60 60 60 60 58 60 60 65 64 65 66 69 67 69 71 73 72 72 72 73 72 72 74 74 75 75 75 75 75 75 74 75 76 77 77 76 77 77 77 77 76 76 76 76 76 76 76 76 76 75 75 75 75 75 74 74 74 74 74 74 74 74 74 74 74 75 75 75 74 74 75 75 75
72 72 72 72 66 69 64 63 58 54 51 50 51 52 55 53 54 56 58 59 61 61 61 59 59 63 59 57 60 63 63 62 63 65 66 67 67 69 70 72 73 71 72 72 72 73 73 75 76 75 74 74 74 74 75 76 76 76 77 77 77 77 77 77 76 76 76 76 76 76 76 76 76 76 75 75 75 75 74 74 74 74 74 74 74 74 74 73 73 73 74 75 74 75 74 75 75
72 72 72 71 67 61 61 58 56 56 50 51 49 51 53 55 57 58 59 60 61 61 60 60 60 63 63 61 63 60 61 64 64 65 65 67 69 70 71 72 72 71 72 72 73 73 73 75 76 76 75 75 75 75 75 76 76 76 76 76 77 77 77 77 77 76 76 76 76 76 76 76 76 76 76 75 75 74 74 74 74 74 74 74 74 74 74 74 73 73 73 74 74 74 74 74 75
73 72 73 71 65 67 62 57 55 55 54 53 52 51 54 55 57 58 59 60 61 60 61 60 60 60 61 63 64 61 64 61 65 66 66 68 69 70 71 72 70 71 71 72 72 73 73 76 76 75 75 75 75 75 76 76 76 76 76 77 77 77 77 77 77 76 76 76 76 76 76 76 76 76 75 75 75 74 74 74 74 75 74 75 75 74 74 74 74 74 74 73 73 74 73 73 74
71 71 70 69 67 67 58 54 54 54 54 55 53 52 54 57 58 58 59 59 60 60 61 61 62 61 60 63 64 65 67 66 65 65 67 69 69 70 70 69 70 70 71 72 72 73 72 75 75 75 75 75 75 76 76 76 76 76 77 77 77 77 76 77 77 76 76 76 76 76 76 76 76 75 75 75 75 74 75 75 75 74 74 74 74 74 74 74 74 74 74 74 73 73 74 74 74
72 68 67 62 59 60 55 54 54 55 54 55 55 54 55 58 58 58 58 58 59 59 60 61 60 61 62 63 61 67 68 67 65 68 69 69 69 70 70 69 69 70 71 72 73 73 75 75 75 75 75 75 75 76 76 76 76 77 77 77 77 77 77 77 77 77 77 76 76 76 76 76 75 75 75 75 75 75 74 73 74 74 74 74 74 74 74 75 75 74 73 73 74 73 73 74 74
70 67 67 63 58 58 55 54 53 56 55 56 55 57 58 58 58 57 57 58 59 60 60 60 61 58 62 62 63 67 68 68 69 70 69 69 69 69 69 68 69 69 70 72 72 74 73 75 75 75 75 75 76 76 76 76 77 76 77 77 76 76 76 77 77 76 76 76 76 76 76 76 75 76 75 75 74 74 74 74 74 73 74 74 75 75 75 75 75 75 74 74 74 74 74 73 73
68 67 63 61 58 54 54 52 51 51 53 54 55 55 57 58 57 57 57 58 58 60 60 61 61 60 62 62 64 65 67 68 69 69 69 69 69 69 69 69 69 69 70 71 72 73 73 75 75 75 75 75 76 76 76 77 76 77 77 77 76 76 76 77 77 76 77 76 76 76 76 75 76 76 75 75 74 74 74 74 74 74 74 74 74 75 75 75 75 75 75 74 74 74 74 74 73
63 65 64 59 55 53 52 48 51 51 51 52 53 56 57 58 57 57 57 58 60 59 61 61 61 61 61 62 65 69 69 68 68 67 69 69 69 69 69 70 70 70 70 71 71 73 74 74 75 75 75 75 75 76 76 76 76 76 77 77 76 76 77 77 76 76 76 76 76 76 76 75 76 75 75 75 75 74 73 73 74 74 74 74 74 74 74 74 74 74 75 75 75 75 74 74 74
61 61 62 55 54 54 51 52 51 51 53 53 51 55 58 57 57 57 58 58 60 60 60 60 60 62 60 62 64 68 68 67 67 68 69 69 69 69 69 69 70 70 70 70 72 73 74 75 74 74 75 75 76 76 76 76 76 76 77 76 76 76 77 76 76 76 76 76 76 76 76 76 75 75 75 75 75 74 74 73 73 73 74 74 74 73 74 74 74 74 74 75 75 75 75 75 74
62 61 59 56 54 55 54 54 52 53 52 50 50 56 58 57 56 57 58 58 60 59 60 61 63 61 59 60 65 67 66 67 67 68 68 68 69 69 70 69 70 70 70 72 72 73 74 75 73 74 74 75 76 76 76 76 76 76 76 76 76 76 76 76 76 76 76 76 76 76 76 76 75 75 75 75 75 75 74 73 74 74 74 74 74 74 74 74 74 74 74 75 75 75 75 75 74
62 62 59 56 57 56 55 53 53 51 47 44 51 57 58 57 57 58 58 58 59 58 61 63 62 62 61 63 65 65 65 67 67 68 68 69 69 69 69 69 70 70 71 71 72 73 73 74 72 73 74 75 75 76 76 76 76 76 76 76 77 77 77 76 76 76 76 76 76 76 76 76 75 75 75 75 75 75 75 74 74 74 74 74 74 74 74 74 74 74 74 74 75 75 75 75 74
62 64 61 58 55 55 54 52 48 49 46 47 52 57 57 58 58 58 57 57 59 62 63 63 62 58 58 60 61 63 66 67 68 68 69 69 69 69 69 69 70 70 70 70 71 73 73 74 72 73 75 74 75 75 75 76 76 77 77 77 77 77 76 76 76 76 76 76 76 76 76 76 75 75 75 75 75 74 75 74 74 73 73 74 74 74 74 74 74 74 73 74 74 74 75 75 75
63 63 61 56 54 53 51 51 51 49 47 49 55 57 57 58 59 58 58 59 61 63 62 61 63 56 61 61 62 64 66 68 68 68 68 69 69 69 70 70 69 70 71 71 71 73 73 74 73 73 74 74 74 73 75 75 76 76 77 76 76 77 76 76 76 76 76 76 76 75 76 75 75 74 75 74 74 75 75 74 74 73 73 73 73 74 74 74 74 75 74 74 74 74 74 75 74
63 64 60 58 55 54 52 50 47 38 43 54 56 57 56 57 59 60 61 61 60 61 61 62 61 62 60 62 64 66 67 68 68 68 68 69 69 68 69 69 69 70 70 71 72 73 72 73 74 74 74 74 74 74 74 75 75 76 76 76 76 76 76 76 76 76 76 75 75 75 76 75 75 75 75 74 75 75 75 74 74 74 74 74 74 73 73 74 74 74 74 74 74 74 75 74 75
62 60 57 55 56 55 53 51 46 46 45 55 56 56 57 57 59 60 61 61 61 61 61 62 64 63 64 65 65 67 67 67 67 67 67 68 68 67 68 68 69 69 70 70 71 73 72 73 75 74 74 74 75 74 75 75 75 76 76 76 76 76 76 76 76 76 75 75 75 75 76 75 75 76 76 75 75 75 74 75 75 74 74 75 75 74 73 74 74 75 75 74 75 74 74 76 75
60 59 58 55 57 55 57 53 52 49 49 55 56 57 56 57 58 60 58 59 60 60 60 61 63 64 66 66 66 66 67 66 66 65 65 67 66 66 67 68 68 68 69 70 71 71 73 73 74 73 74 75 75 75 75 75 75 75 75 76 75 75 76 76 76 76 76 75 75 75 76 75 75 76 76 76 76 75 74 75 75 74 74 75 75 75 75 75 75 76 75 76 76 76 76 76 75
62 60 56 57 58 57 56 55 55 54 53 54 56 57 57 59 59 60 57 59 60 58 59 61 62 63 65 65 65 66 66 65 66 65 65 66 66 66 66 67 68 68 68 69 69 71 73 72 73 74 74 75 75 74 74 74 75 75 74 75 75 75 75 75 76 76 76 76 75 75 74 76 75 76 75 76 76 75 74 75 75 75 75 75 76 75 74 75 76 75 76 76 74 74 75 74 73
62 61 57 57 57 57 57 55 54 50 51 53 56 57 57 59 60 59 58 58 59 58 60 61 61 63 64 65 64 65 65 65 65 65 65 65 65 65 66 66 67 68 69 69 69 70 72 73 73 74 74 75 75 74 74 73 75 74 74 74 74 74 75 75 75 75 76 76 76 75 75 76 75 75 75 75 74 75 74 74 74 74 75 74 75 75 74 74 74 75 74 74 73 73 73 73 72
62 60 61 58 57 55 55 58 56 51 55 56 57 56 56 60 60 58 58 56 56 58 60 61 62 64 64 64 64 64 64 64 64 65 64 65 65 66 66 67 67 68 69 68 69 71 71 72 73 73 74 75 75 74 74 74 75 74 74 74 74 75 74 74 74 75 74 76 75 74 75 76 75 75 75 75 74 75 74 74 74 75 75 75 76 74 73 74 74 73 74 73 72 73 72 73 72
58 60 61 61 60 59 59 58 55 53 55 56 56 56 59 59 58 59 58 55 56 59 60 61 64 65 65 65 64 64 63 64 64 64 65 65 65 65 66 66 67 67 68 69 70 71 71 72 73 73 73 74 74 75 74 74 74 74 74 74 74 73 74 74 74 74 75 76 76 76 74 73 74 73 74 75 74 74 73 74 74 75 75 74 75 74 74 74 73 73 73 74 73 71 71 72 72
60 57 59 59 60 59 59 58 56 54 52 54 55 58 57 58 57 59 59 57 58 59 60 62 65 65 66 65 64 64 64 64 64 65 65 65 65 66 66 66 67 68 69 69 69 70 72 71 73 73 73 74 74 75 75 73 74 73 74 75 75 74 74 73 73 74 76 75 76 76 75 74 73 73 74 74 74 74 74 75 75 74 73 74 75 75 73 73 72 73 74 74 74 73 70 71 69
59 58 59 59 58 56 55 55 54 53 52 51 56 56 56 58 56 59 58 59 58 59 61 64 65 65 65 65 64 64 65 64 64 65 66 66 66 66 67 67 68 68 68 69 69 70 70 71 72 72 73 74 73 73 73 73 74 74 73 73 73 74 74 73 73 75 75 74 74 76 75 73 73 73 73 74 74 75 75 75 74 73 75 74 75 74 74 74 73 72 74 74 72 71 71 70 70
58 58 60 58 56 55 54 53 52 51 50 50 54 54 55 57 58 57 58 59 59 61 62 64 65 65 65 65 65 65 65 65 65 65 66 67 66 66 66 67 67 67 68 68 69 70 70 71 71 71 72 73 73 72 73 73 74 74 74 74 73 75 74 74 74 73 74 74 73 75 74 74 73 73 74 74 74 74 74 75 75 75 74 74 74 74 74 74 72 72 73 74 73 72 70 72 72
55 56 56 55 55 53 53 52 51 51 50 49 50 51 54 58 57 53 57 59 60 61 62 64 64 65 65 65 65 65 64 65 65 65 66 66 66 66 66 66 66 67 68 68 69 70 70 71 70 72 72 74 74 72 73 73 74 74 74 74 74 74 74 75 74 74 73 73 74 75 75 75 74 73 74 75 74 74 75 75 75 75 74 73 75 74 76 75 74 73 74 73 73 72 71 71 72
54 53 51 49 47 46 46 46 46 46 46 48 49 48 53 57 56 53 57 59 60 61 62 64 64 65 65 65 65 66 65 66 66 66 65 66 66 66 67 67 67 67 67 68 69 70 70 70 70 71 72 73 74 72 73 73 74 74 74 74 73 74 75 74 73 73 73 73 74 74 75 74 75 74 75 76 74 74 74 74 75 75 74 74 75 74 75 75 75 75 76 74 73 72 72 71 72
51 48 44 41 39 37 35 34 35 42 40 46 49 49 52 54 54 55 58 59 60 61 62 63 64 64 65 65 64 66 65 66 66 66 66 67 67 67 67 67 67 68 68 68 69 70 69 70 70 72 72 73 73 72 72 72 73 73 73 73 73 74 74 74 73 73 74 74 75 75 75 75 76 75 75 76 75 74 75 75 75 75 75 75 75 76 77 77 75 74 75 75 74 73 71 71 70
44 41 40 39 37 37 39 36 33 37 39 45 49 41 45 51 54 55 59 59 60 61 62 62 63 64 64 65 64 65 65 66 66 66 67 67 67 67 67 67 68 68 69 70 69 69 69 70 70 71 72 72 73 72 73 72 73 73 73 73 73 74 73 73 73 73 73 74 75 75 75 76 76 76 76 76 75 74 75 76 75 75 75 76 76 77 75 75 74 74 74 74 73 73 71 71 69
39 39 37 36 35 36 28 33 39 38 40 47 46 35 34 48 52 56 59 59 59 60 61 62 62 63 63 64 64 65 65 66 66 66 67 67 68 68 68 68 68 68 69 69 70 70 70 70 70 70 72 72 73 72 73 73 73 72 72 72 73 73 73 73 72 73 73 74 75 75 76 77 77 77 77 76 76 75 75 75 75 74 76 76 74 76 75 75 74 74 74 73 74 72 71 71 70
36 38 36 33 34 36 31 29 34 32 37 47 45 37 36 43 50 57 58 59 59 59 60 61 62 62 63 64 64 64 65 65 66 66 66 67 68 68 68 68 68 67 68 70 70 71 70 70 71 69 71 72 72 73 73 73 72 73 73 73 73 74 73 73 73 72 73 74 74 75 77 77 77 77 77 77 75 76 74 74 75 76 77 76 76 76 76 75 75 74 74 73 72 72 71 71 70
29 34 37 36 29 30 34 24 27 27 36 45 43 33 37 36 45 57 59 59 59 59 60 61 62 62 62 63 63 64 65 65 66 66 67 67 67 68 68 69 69 68 68 69 70 71 71 70 71 70 69 71 71 72 73 73 73 73 73 73 72 73 72 72 73 73 73 74 74 73 75 76 76 77 77 77 76 76 75 75 75 76 77 76 76 77 76 75 75 72 75 74 73 73 71 70 69
24 33 37 37 38 35 34 29 30 33 32 39 43 38 36 42 46 57 59 58 58 59 60 61 62 62 63 63 63 64 65 65 65 66 66 67 67 68 68 70 69 69 69 69 70 70 71 71 71 71 71 70 72 72 73 73 73 73 73 72 74 72 72 72 73 74 74 73 74 74 76 76 76 77 77 77 76 76 76 76 75 77 76 76 77 76 76 76 75 74 74 75 74 73 72 70 68
18 29 33 34 31 28 30 29 25 23 31 28 35 39 37 39 49 57 58 58 58 58 60 61 61 62 63 63 63 63 64 65 65 66 66 67 67 68 69 69 69 69 69 69 69 71 71 71 72 72 72 72 71 73 73 73 73 74 73 73 72 73 73 73 73 74 74 74 73 75 76 76 76 77 77 77 77 76 76 76 76 77 76 76 77 76 75 76 75 75 74 75 75 74 72 72 70
18 27 33 36 36 36 34 29 25 23 21 21 26 28 30 33 49 55 58 59 58 58 60 61 61 62 63 63 63 63 64 64 65 66 67 67 68 68 68 69 69 69 69 69 70 70 71 72 72 73 73 72 73 73 73 72 72 72 71 72 71 72 73 73 73 73 74 73 74 75 76 76 77 77 77 77 77 77 76 76 77 77 76 76 75 75 74 74 75 75 75 74 73 73 74 73 71
31 30 33 35 36 36 28 24 23 23 23 25 23 25 26 28 39 51 57 59 59 59 60 60 61 62 62 63 62 63 64 64 66 67 67 67 67 68 69 69 69 70 70 70 70 70 70 71 72 72 72 73 73 72 72 71 71 71 72 70 70 71 72 72 73 73 73 73 74 75 76 75 77 77 77 78 77 77 77 77 77 77 77 76 76 75 75 74 76 75 75 75 73 73 72 73 70
29 31 31 30 28 30 29 29 25 23 25 28 29 27 28 28 33 48 56 58 58 58 59 60 60 61 62 63 63 63 64 65 65 66 67 67 67 68 68 69 70 69 70 70 70 69 70 70 71 72 73 73 73 73 72 72 72 71 71 70 70 70 72 72 72 73 73 74 75 76 76 76 77 77 77 78 78 77 77 77 77 77 77 76 76 76 76 76 76 75 74 73 74 72 71 69 69
24 24 28 31 32 32 32 31 29 25 24 29 25 22 22 24 28 47 55 57 58 58 58 59 60 61 62 62 63 64 64 65 65 65 66 66 67 67 68 69 69 69 69 70 70 70 70 70 71 72 73 73 73 73 73 73 73 73 72 72 71 71 72 73 72 73 74 74 74 76 76 76 77 77 77 77 77 77 77 77 77 77 77 76 76 76 76 76 75 74 74 72 71 72 71 71 71
18 18 21 22 24 29 32 21 22 20 20 22 25 23 25 33 49 47 55 56 58 59 59 59 60 61 61 61 62 63 64 64 64 65 65 66 66 67 68 68 69 69 70 70 70 70 70 71 72 72 73 73 74 74 74 74 74 75 74 74 74 73 73 74 75 75 75 74 73 74 76 76 77 76 77 77 77 77 77 77 77 76 77 77 76 76 76 75 75 75 73 72 72 70 69 69 70
22 18 17 15 20 23 28 28 21 20 20 20 23 26 27 33 35 50 55 56 57 58 59 60 61 61 62 62 63 63 63 64 65 65 65 65 66 67 68 69 69 69 69 70 70 70 70 70 72 73 73 73 74 74 74 74 74 74 74 74 74 74 74 73 74 73 74 74 73 75 75 76 76 76 76 77 77 77 77 77 77 77 77 77 76 76 75 74 74 74 74 73 73 70 68 68 69
23 24 20 17 22 26 25 22 25 28 28 26 25 28 29 42 44 46 54 56 57 58 59 59 60 61 62 61 62 63 63 64 65 65 65 65 66 67 68 69 68 68 69 70 70 70 71 72 72 73 73 73 74 74 75 74 74 73 72 71 70 71 71 71 71 72 72 73 72 72 75 75 75 76 76 77 77 77 78 77 77 77 77 77 76 74 75 75 74 74 74 74 73 73 71 69 67
22 23 25 25 25 25 27 27 28 31 31 29 26 27 27 38 36 44 52 55 56 57 58 58 59 60 60 61 61 62 62 63 64 64 65 65 66 66 67 68 68 68 69 70 70 71 72 72 73 73 73 74 74 75 75 74 73 73 73 72 71 71 71 72 73 73 73 74 74 74 75 75 76 75 75 76 77 77 78 78 78 77 77 77 76 75 74 73 72 74 74 73 73 73 72 69 68
22 28 26 26 27 27 28 29 30 32 32 29 26 28 28 28 29 40 48 53 55 57 57 58 57 60 59 60 60 62 62 63 63 64 65 65 66 66 67 68 68 67 69 69 70 70 72 73 73 73 73 73 74 75 74 74 73 73 73 73 72 72 71 72 74 74 75 75 74 74 75 75 76 76 75 77 77 77 78 78 78 77 77 76 75 74 74 73 74 74 74 74 74 73 72 70 68
23 27 26 26 26 27 28 29 32 32 28 27 25 24 26 26 36 43 49 48 54 55 56 58 58 59 59 59 59 61 62 63 63 63 64 65 65 66 66 67 67 68 68 69 70 71 72 73 73 74 74 74 74 75 74 74 74 74 73 73 73 73 73 73 74 74 74 75 74 75 75 75 76 77 77 77 77 77 77 77 78 77 76 76 75 74 74 73 74 74 74 74 74 73 72 71 69
26 25 27 27 27 27 28 29 28 26 24 26 28 22 25 26 28 32 51 44 46 51 55 57 58 59 59 59 60 60 61 63 63 63 64 65 65 65 66 66 67 67 68 70 70 70 71 72 73 74 74 74 74 75 75 75 75 75 74 74 73 73 73 73 73 73 74 75 74 75 76 75 75 76 77 77 77 77 77 77 77 76 75 74 74 74 74 74 74 74 74 74 74 73 72 71 69
24 23 23 22 22 23 25 24 26 26 23 26 24 22 22 22 27 27 41 44 45 46 53 56 58 59 59 59 59 59 60 61 62 63 64 65 65 66 66 66 67 67 68 68 69 70 70 71 73 73 73 74 74 74 74 74 74 74 74 74 74 73 74 73 73 74 74 74 74 74 75 75 76 75 75 76 76 76 76 76 75 75 75 75 75 75 75 74 73 74 73 74 74 73 72 71 70
24 22 20 22 27 26 27 26 28 25 24 28 24 22 20 21 25 27 36 43 44 45 45 52 55 57 58 59 59 59 60 61 62 62 63 64 65 66 66 66 66 67 68 68 68 69 70 71 72 73 73 74 74 74 74 74 74 74 74 74 74 74 74 73 73 73 73 74 74 74 75 75 76 76 76 76 76 74 75 75 76 75 75 75 75 75 75 74 74 74 74 74 74 73 72 71 69
23 21 23 20 26 22 18 25 20 21 21 19 16 17 19 21 28 29 34 36 42 46 40 45 51 55 58 58 59 59 59 60 61 62 63 63 64 65 65 66 67 68 68 68 68 67 69 71 72 72 73 73 73 73 74 74 74 74 74 74 74 74 74 74 73 73 74 73 74 74 75 75 75 75 76 75 75 75 75 75 76 75 76 76 75 75 75 75 75 74 74 74 73 72 71 71 69
21 20 22 21 19 15 15 17 20 18 18 16 13 22 16 23 22 27 24 37 39 44 47 45 49 54 57 58 59 58 59 60 61 61 62 63 64 64 65 66 67 67 67 67 68 68 69 70 72 72 72 73 74 73 73 74 74 74 75 74 74 74 74 74 73 73 73 74 74 74 74 73 75 75 75 76 75 76 76 76 75 75 75 76 76 75 75 76 76 74 75 74 72 72 71 71 70
21 19 20 21 19 15 14 13 12 9 11 17 22 13 14 15 15 27 23 28 38 40 44 49 50 52 57 56 57 58 59 60 61 61 61 62 64 65 64 65 66 66 66 66 67 69 70 70 71 72 72 73 73 73 73 73 74 74 74 74 74 74 73 73 73 73 73 74 73 74 74 74 74 75 75 76 77 77 76 76 75 75 75 76 76 76 75 76 76 75 74 74 73 72 72 70 70
21 21 19 21 21 24 9 17 12 13 10 16 22 14 25 16 37 38 37 30 34 40 43 47 49 50 51 54 55 56 57 58 59 60 61 62 64 65 64 65 65 66 67 66 67 69 69 70 71 72 72 73 73 73 73 73 73 74 74 74 74 74 74 74 74 74 74 74 74 74 74 75 75 75 76 77 77 77 77 76 76 75 75 75 75 76 75 75 75 74 74 74 73 71 71 71 70
22 21 20 20 21 17 21 24 25 21 19 16 28 22 23 29 26 24 31 32 31 34 38 39 43 45 51 51 53 55 56 57 58 59 60 62 63 64 64 64 64 64 65 66 68 69 69 70 70 71 72 72 72 73 73 73 73 74 74 74 74 74 73 73 72 73 71 73 74 74 74 74 75 75 75 76 76 77 77 76 76 74 74 75 75 75 75 75 75 74 73 73 72 70 71 71 70
21 20 21 22 22 20 23 14 29 16 11 21 16 15 17 18 12 38 27 31 29 32 34 35 41 44 46 47 51 54 54 56 58 60 61 62 62 63 63 63 63 63 64 66 68 68 69 70 69 70 71 72 72 72 72 72 73 73 74 74 74 74 73 72 72 72 72 73 74 74 73 74 74 74 74 75 76 76 77 76 76 75 75 74 74 74 75 75 75 74 73 73 72 72 71 72 71
21 21 22 20 22 22 34 25 18 15 15 15 20 19 16 18 18 30 33 31 32 36 38 36 37 40 42 44 48 52 54 55 57 58 60 60 60 61 62 61 61 63 65 66 67 66 67 68 69 68 70 70 71 70 71 72 73 72 73 73 74 74 73 73 73 73 73 73 72 72 72 73 73 74 75 76 76 75 76 76 76 75 75 74 75 74 74 75 75 74 73 72 72 72 71 71 72
18 20 20 23 21 23 28 24 27 24 17 17 13 17 12 24 17 18 24 37 37 34 37 37 37 39 42 44 43 47 52 54 55 56 57 58 59 59 59 60 60 61 63 64 64 64 64 65 68 68 68 70 71 71 71 72 72 72 72 73 74 74 74 73 73 74 73 72 72 72 72 71 73 73 74 75 75 75 75 75 74 74 74 74 74 73 74 74 74 74 73 71 71 72 71 71 70
18 17 19 18 19 20 22 23 19 19 21 20 17 13 20 28 24 19 20 30 39 38 40 44 42 40 40 43 44 46 50 52 53 54 56 57 58 58 58 59 60 60 62 62 61 63 63 64 65 66 68 68 69 69 70 72 71 72 73 73 73 73 73 73 73 73 73 73 73 73 72 72 74 73 73 74 75 75 76 75 74 75 74 75 75 74 73 74 74 73 73 72 72 72 71 70 71
20 18 18 18 17 19 18 20 18 17 18 21 16 15 23 17 30 28 24 26 31 41 41 42 42 40 45 44 44 48 49 51 52 52 53 55 57 58 58 59 60 59 59 60 60 61 62 63 63 65 65 66 67 68 71 71 71 71 72 72 72 72 72 72 72 72 73 72 73 73 73 73 73 74 74 73 75 74 75 75 74 75 75 75 75 75 73 73 74 73 73 72 71 72 71 71 71